CZ-4 DEB

Satellite information

Favourite Embed

Satellite Type and Status

DEBRISIN ORBIT

Key statistics

Satellite CZ-4 DEB at a glance.

Uptime

12787

Days in orbit

Revolutions

≈ 14.6

Per day

Orbit

SSO

Sun Synchronous Orbit

Inclination

98.3

Latest

Satellite identification and parameters

Extended collection of information and parameters for CZ-4 DEB.

Object identification

Identified? True

Debris? True

Object name: CZ-4 DEB

International designator: 1990-081W

Object number (NORAD): 20858

Object ID (CCSDS): 20858

Country: PEOPLES REPUBLIC OF CHINA (PRC)

Current information (Y/N): Y

RCS size: MEDIUM

Orbital parameters

Period: 98.93 minutes

Inclination: 98.2749 deg

SMA: 7085.624 km

Apoapsis: 728.009 km

Periapsis: 686.969 km

RAAN: 284.942 deg

Eccentricy: 0.00289603

Argument of periapsis: 255.3005 deg

Mean anomaly: 218.3139 deg

Mean motion: 14.55578474 rev/day

Mean motion (dot): 0.00004944 rev/day2

B* drag term: 0.0011377296 1/REarth

Two-line elements (TLE)

Creation date: Sept. 6, 2025, 2:09 a.m.

Reference frame: TEME

Reference center: EARTH

Epoch: Sept. 5, 2025, 4:54 p.m. UTC

TLE line 0: 0 CZ-4 DEB

TLE line 1: 1 20858U 90081W 25248.70439668 .00004944 00000-0 11377-2 0 9997

TLE line 2: 2 20858 98.2749 284.9420 0028960 255.3005 218.3139 14.55578474824470

Live tracking on map

Real-time ground track for satellite CZ-4 DEB.

In-orbit conjunctions

A list of the most updated potential collisions computed for object CZ-4 DEB.

Target Orbit TCA Probability of collision Miss distance Type
CZ-6A DEB LEO 2025-08-17 07:34:53 0.0001162764 238.0 (m) DEBRIS
CZ-2D DEB SSO 2025-08-06 01:41:51 0.0001583113 165.0 (m) DEBRIS
FENGYUN 1C DEB SSO 2024-06-25 15:50:02 0.0001011714 107.0 (m) DEBRIS

Associated space launch

Chinese polar orbiting meteorological satellite

CZ-4 DEB was lifted into orbit during the mission ‘Long March 4A | Feng Yun 1B’, on board a Long March 4A space rocket.

The launch took place on Sept. 3, 1990, 12:53 a.m. from Launch Complex 7.

For more information about the launch, click the button.

Launch to space Long March 4A | Feng Yun 1B
Long March 4A | Feng Yun 1B

Agency: N/A

Status: Launch Successful

Launch date: Sept. 3, 1990, 12:53 a.m. UTC

Rocket: Long March 4A

Launch pad: Launch Complex 7

Location: Taiyuan Satellite Launch Center, People's Republic of China

...

Latest news about this satellite

There are no fresh news available about this satellite. Check back as we update our databases every day.


Newsletter sign-up

Weekly statistics, charts and insights to help you stay on top of the space industry.